Regional Weather Roundup
Issued by NWS

Home | Current Version | Previous Version | Text Only | Print | Product List | Glossary Off
Versions: 1 2 3 4 5 6 7 8 9 10 11 12 13 14 15 16 17 18 19 20 21 22 23 24 25 26 27 28 29 30 31 32 33 34 35 36 37 38 39 40 41 42 43 44 45 46 47 48 49 50

298
ASUS45 KPSR 200610
RWRAZ

ARIZONA HOURLY REGIONAL WEATHER ROUNDUP
NATIONAL WEATHER SERVICE PHOENIX AZ
1100 PM MST SUN NOV 19 2017

NOTE: FAIR INDICATES FEW OR NO CLOUDS BELOW 12,000 FEET WITH NO
SIGNIFICANT WEATHER AND/OR OBSTRUCTIONS TO VISIBILITY.

AZZ001>003-036-200700-
NORTHWEST ARIZONA

CITY           SKY/WX    TMP DP  RH WIND       PRES   REMARKS
BULLHEAD CITY  MOCLDY    59  23  25 N7        30.05S
KINGMAN        PTCLDY    36   5  27 S3        30.12S
6HR MIN TEMP:  35; 6HR MAX TEMP:  62;

$$

AZZ004>008-015-016-018-200700-
NORTH CENTRAL ARIZONA

CITY           SKY/WX    TMP DP  RH WIND       PRES   REMARKS
GRAND CANYON   PTCLDY    18  -2  41 CALM      30.22S
6HR MIN TEMP:  18; 6HR MAX TEMP:  48;

WILLIAMS       PTCLDY    27   7  43 S10       30.21F WCI  17
PRESCOTT       PTCLDY    38  14  37 S9        30.15F WCI  31
6HR MIN TEMP:  35; 6HR MAX TEMP:  60;

FLAGSTAFF      PTCLDY    22   1  40 CALM      30.22F
6HR MIN TEMP:  22; 6HR MAX TEMP:  47;

PAYSON         CLEAR     43  12  28 CALM      30.18F
PAGE           PTCLDY    36  13  38 CALM      30.19S
6HR MIN TEMP:  36; 6HR MAX TEMP:  48;

$$

AZZ009>014-017-200700-
NORTHEAST ARIZONA

CITY           SKY/WX    TMP DP  RH WIND       PRES   REMARKS
WINSLOW        MOCLDY    25   0  33 SW6       30.21S WCI  18
6HR MIN TEMP:  23; 6HR MAX TEMP:  50;

SAINT JOHNS    MOCLDY    32   7  35 S5        30.19F WCI  27
6HR MIN TEMP:  30; 6HR MAX TEMP:  52;

WINDOW ROCK    PTCLDY    17   1  49 CALM      30.22F
6HR MIN TEMP:  17; 6HR MAX TEMP:  49;

SHOW LOW       PTCLDY    27   5  39 SE3       30.22F
$$

AZZ540-542>544-546-548-200700-
GREATER PHOENIX AREA

CITY           SKY/WX    TMP DP  RH WIND       PRES   REMARKS
PHOENIX        CLEAR     62  30  29 CALM      29.98S
6HR MIN TEMP:  61; 6HR MAX TEMP:  81;

BUCKEYE        CLEAR     59  10  14 N9        30.00R
LUKE AFB       CLEAR     60  21  22 N10       29.98S
6HR MIN TEMP:  59; 6HR MAX TEMP:  78;

DEER VALLEY    CLEAR     59  16  18 CALM      30.00R
6HR MIN TEMP:  59; 6HR MAX TEMP:  77;

SCOTTSDALE     CLEAR     63  24  22 CALM      30.01S
6HR MIN TEMP:  58; 6HR MAX TEMP:  79;

MESA-GATEWAY   PTCLDY    54  21  28 SE5       30.00F
$$

AZZ539-553-200700-
SOUTHWEST MARICOPA COUNTY AND PINAL COUNTY

CITY           SKY/WX    TMP DP  RH WIND       PRES   REMARKS
CASA GRANDE    NOT AVBL
$$

AZZ503-504-507>509-200700-
SOUTHEAST ARIZONA

CITY           SKY/WX    TMP DP  RH WIND       PRES   REMARKS
TUCSON         CLEAR     63  23  21 E8        30.06R
6HR MIN TEMP:  63; 6HR MAX TEMP:  78;

DAVIS-MONTHAN  CLEAR     54  22  28 SE8       30.04S
6HR MIN TEMP:  54; 6HR MAX TEMP:  77;

NOGALES        CLEAR     49  25  39 NE7       30.09R
6HR MIN TEMP:  48; 6HR MAX TEMP:  73;

SIERRA VISTA   CLEAR     47  22  37 W5        30.15R
6HR MIN TEMP:  47; 6HR MAX TEMP:  65;

DOUGLAS        CLEAR     44  21  40 N10       30.13S
6HR MIN TEMP:  44; 6HR MAX TEMP:  66;

SAFFORD        CLEAR     51  13  21 SE8       30.11R
6HR MIN TEMP:  46; 6HR MAX TEMP:  67;

$$

AZZ532-200700-
SOUTHWEST ARIZONA

CITY           SKY/WX    TMP DP  RH WIND       PRES   REMARKS
YUMA           PTCLDY    62  12  14 N7        29.98F
6HR MIN TEMP:  60; 6HR MAX TEMP:  74;

$$

CAZ041-043-047-048-061-525>527-560>570-200700-
SOUTHERN CALIFORNIA

CITY           SKY/WX    TMP DP  RH WIND       PRES   REMARKS
DOWNTOWN L.A.  PTCLDY    57  50  77 CALM      30.01R
6HR MIN TEMP:  57; 6HR MAX TEMP:  71;

L.A. AIRPORT   PTCLDY    61  54  77 SE3       30.01R
6HR MIN TEMP:  59; 6HR MAX TEMP:  68;

SAN DIEGO      PTCLDY    59  47  64 CALM      30.04R
6HR MIN TEMP:  59; 6HR MAX TEMP:  70;

BURBANK        CLEAR     57  27  31 W3        30.02R
6HR MIN TEMP:  57; 6HR MAX TEMP:  74;

ONTARIO        PTCLDY    57  36  45 N3        30.02F
6HR MIN TEMP:  57; 6HR MAX TEMP:  75;

RIVERSIDE      PTCLDY    54  38  54 E3        30.03S
6HR MIN TEMP:  54; 6HR MAX TEMP:  77;

PALM SPRINGS   PTCLDY    61  17  18 N7        30.03S
6HR MIN TEMP:  60; 6HR MAX TEMP:  76;

EL CENTRO NAS  PTCLDY    53  12  19 W9        30.01S
6HR MIN TEMP:  53; 6HR MAX TEMP:  76;

IMPERIAL       PTCLDY    54  28  36 W5        29.99S
6HR MIN TEMP:  53; 6HR MAX TEMP:  74;

BLYTHE         PTCLDY    56   8  14 W6        30.02S
6HR MIN TEMP:  55; 6HR MAX TEMP:  74;

NEEDLES        MOCLDY    58   6  12 NW12      30.04S
6HR MIN TEMP:  55; 6HR MAX TEMP:  71;

$$

NVZ020-UTZ003-200700-
SOUTHERN NEVADA-UTAH

CITY           SKY/WX    TMP DP  RH WIND       PRES   REMARKS
LAS VEGAS      CLOUDY    48   9  20 S5        30.08F
6HR MIN TEMP:  48; 6HR MAX TEMP:  62;

SALT LAKE CITY MOCLDY    35  31  85 CALM      30.10S
6HR MIN TEMP:  34; 6HR MAX TEMP:  43;

$$

NMZ009-TXZ055-200700-
NEW MEXICO-WEST TEXAS

CITY           SKY/WX    TMP DP  RH WIND       PRES   REMARKS
ALBUQUERQUE    CLOUDY    38   4  24 CALM      30.19S
6HR MIN TEMP:  36; 6HR MAX TEMP:  50;

EL PASO        CLEAR     47  17  30 NE7       30.15S
6HR MIN TEMP:  47; 6HR MAX TEMP:  60;

$$


........................KEY........................
SKY/WX - SKY CONDITION/WEATHER
TMP    - TEMPERATURE IN FAHRENHEIT
DP     - DEW POINT IN FAHRENHEIT
RH     - RELATIVE HUMIDITY IN PERCENT
WIND   - DIRECTION AND SPEED IN MILES PER HOUR (MPH)
VRB    - VARIABLE WIND DIRECTION
PRES   - MEAN SEA LEVEL PRESSURE IN INCHES OF MERCURY
         F - FALLING PRESSURE   R - RISING PRESSURE
         S - STEADY PRESSURE
VSB    - VISIBILITY IN MILES
HX     - HEAT INDEX IN FAHRENHEIT
WCI    - WIND CHILL INDEX IN FAHRENHEIT
TC     - TEMPERATURE IN CELSIUS WHICH IS ALSO KNOWN AS
         TEMPERATURE IN CENTIGRADE
AFB    - AIR FORCE BASE
         LUKE AFB IS LUKE AIR FORCE BASE
         DAVIS-MONTHAN IS DAVIS-MONTHAN AIR FORCE BASE
NAS    - NAVAL AIR STATION
         EL CENTRO NAS IS EL CENTRO NAVAL AIR STATION
N/A    - NOT AVAILABLE





USA.gov is the U.S. government's official web portal to all federal, state and local government web resources and services.